Location: Eboldshausen
(51.7766°N, 10.0050°E)
Time: 17:35:55
(UTC+00:00)

Cosmos 2026 Rocket - Pass Details

Date: 15 November 2025
Orbit: 938 x 1000 km, 82.9° (Epoch: 08 December)

Event Time Altitude Azimuth Distance (km) Brightness Sun altitude
Rises 18:47:27 0° 347° (NNW) 3,613 7.2 -30.4°
Reaches altitude 10° 18:49:57 10° 345° (NNW) 2,667 6.5 -30.8°
Maximum altitude 18:55:55 62° 266° (W) 1,057 4.3 -31.7°
Enters shadow 18:57:33 46° 211° (SSW) 1,251 4.6 -31.9°
